Location: Finkenbach
(49.5340°N, 8.9188°E)
Time: 04:36:38
(UTC+00:00)

Meteor 2-16 Rocket - Pass Details

Date: 17 June 2025
Orbit: 942 x 955 km, 82.6° (Epoch: 12 July)

Event Time Altitude Azimuth Distance (km) Brightness Sun altitude
Exits shadow 21:19:24 11° 180° (S) 2,586 6.2 -11.9°
Maximum altitude 21:25:16 75° 96° (E) 979 4.4 -12.3°
Drops below altitude 10° 21:31:22 10° 13° (NNE) 2,676 7.6 -12.8°
Sets 21:33:52 0° 12° (NNE) 3,627 8.4 -13.0°
